Location: Monteux
(44.0348°N, 4.9972°E)
Time: 16:57:44
(UTC+00:00)

Cosmos 1500 - Pass Details

Date: 30 November 2020
Orbit: 498 x 518 km, 82.5° (Epoch: 17 January)

Event Time Altitude Azimuth Distance (km) Brightness Sun altitude
Rises 17:18:36 0° 2° (N) 2,635 6.6 -13.2°
Reaches altitude 10° 17:20:59 10° 16° (NNE) 1,747 5.6 -13.6°
Maximum altitude 17:24:16 26° 74° (ENE) 1,034 4.1 -14.2°
Drops below altitude 10° 17:27:32 10° 133° (SE) 1,743 5.6 -14.7°
Sets 17:29:54 0° 146° (SE) 2,627 6.6 -15.1°
